Location: Daerah Kuala Lumpur
(3.1167°N, 101.6833°E)
Time: 13:30:30
(UTC+00:00)

BlueWalker 3 - Visible Passes

Search period start: 15 February 2026 00:00
Search period end: 25 February 2026 00:00
Orbit: 450 x 461 km, 53.2° (Epoch: 14 February)

Date Brightness Start Highest point End Pass type
(mag) Time Alt. Az. Time Alt. Az. Time Alt. Az.
15 Feb 5.2 12:42:22 10° WSW 12:43:17 11° SW 12:44:12 10° SW visible
15 Feb 5.1 22:47:58 10° SSE 22:49:38 13° SE 22:51:17 10° E visible
16 Feb 4.8 12:05:13 10° W 12:07:31 16° WSW 12:09:51 10° SSW visible
18 Feb 1.7 22:35:58 10° SSW 22:39:35 86° SE 22:43:10 10° NE visible
19 Feb 2.5 22:01:57 25° S 22:03:47 52° SE 22:07:18 10° NE visible
20 Feb 4.3 21:29:57 19° ENE 21:29:57 19° ENE 21:31:15 10° ENE visible
21 Feb 4.1 22:31:15 11° NNW 22:31:15 11° NNW 22:31:25 10° NNW visible
